Simultaneous Nadir Overpasses (SNOs) Predictions

Prediction of SNOs between AURA and NPP Satellite Orbit:

Table of predicted SNOs for the next 14.0 days since TLE Epoch: 10/4/2019
Index Date (AURA) Time (AURA) Lat,Lon (AURA) SZA (AURA ) Date (NPP) Time (NPP) Lat,Lon (NPP) SZA (NPP ) Distance(km) Time Diff (sec)
1 10/05/2019 19:08:20 -79.47, -30.60 83.29 10/05/2019 19:08:06 -79.47, -30.68 83.27 1.67 14
2 10/05/2019 19:57:37 79.79, 139.40 96.26 10/05/2019 19:58:40 79.80, 139.53 96.19 2.62 63
3 10/08/2019 10:35:21 79.34, -83.24 97.85 10/08/2019 10:34:18 79.34, -83.25 97.90 0.27 63
4 10/08/2019 11:24:41 -79.61, 86.30 82.52 10/08/2019 11:24:55 -79.62, 86.35 82.54 1.16 14
5 10/11/2019 02:51:45 79.40, 33.07 98.73 10/11/2019 02:51:11 79.39, 32.93 98.79 2.98 34
6 10/11/2019 03:41:05 -79.68,-157.35 81.64 10/11/2019 03:41:48 -79.67,-157.44 81.66 1.77 43
7 10/13/2019 19:08:06 79.57, 150.13 99.46 10/13/2019 19:08:00 79.57, 150.20 99.45 1.35 6
8 10/13/2019 19:57:27 -79.80, -40.49 80.87 10/13/2019 19:58:38 -79.81, -40.38 80.94 2.41 71
9 10/16/2019 10:35:10 -79.41, 97.30 79.39 10/16/2019 10:34:15 -79.41, 97.35 79.36 1.17 55




NCC Satellite Simultaneous Nadir Overpasses (SNOs) Prediction Service
